This is the latest recevied weather packets stored in our database for station/object KK7KHO. If no packets are shown the sender has not sent any weather packets the latest 10 day(s).
| Time | Temp. | Humidity | Pressure | Rain* | Wind** | Luminosity | Snow |
|---|---|---|---|---|---|---|---|
| 1777744417 | 16.67° C | 83% | 1016.6 hPa | 0 mm | - | 553 W/m² | - |
| 1777744115 | 16.67° C | 84% | 1016.7 hPa | 0 mm | - | 543 W/m² | - |
| 1777743812 | 16.67° C | 83% | 1016.6 hPa | 0 mm | - | 536 W/m² | - |
| 1777743508 | 16.11° C | 85% | 1016.7 hPa | 0 mm | - | 527 W/m² | - |
| 1777743206 | 15.56° C | 86% | 1016.8 hPa | 0 mm | - | 519 W/m² | - |
| 1777742905 | 16.11° C | 84% | 1016.7 hPa | 0 mm | - | 499 W/m² | - |
| 1777742601 | 16.11° C | 86% | 1016.8 hPa | 0 mm | - | 492 W/m² | - |
| 1777742297 | 15.56° C | 87% | 1016.8 hPa | 0 mm | - | 506 W/m² | - |
| 1777741994 | 16.11° C | 86% | 1016.7 hPa | 0 mm | - | 506 W/m² | - |
| 1777741691 | 16.11° C | 86% | 1016.8 hPa | 0 mm | - | 494 W/m² | - |
| 1777741387 | 15.56° C | 88% | 1016.8 hPa | 0 mm | - | 434 W/m² | - |
| 1777741083 | 15° C | 89% | 1016.9 hPa | 0 mm | - | 287 W/m² | - |
| 1777740780 | 15.56° C | 87% | 1016.9 hPa | 0 mm | - | 342 W/m² | - |
| 1777740477 | 15° C | 89% | 1016.9 hPa | 0 mm | - | 305 W/m² | - |
| 1777740174 | 14.44° C | 91% | 1016.9 hPa | 0 mm | - | 410 W/m² | - |
| 1777739870 | 13.89° C | 93% | 1017 hPa | 0 mm | - | 273 W/m² | - |
| 1777739567 | 13.89° C | 93% | 1017 hPa | 0 mm | - | 159 W/m² | - |
| 1777739264 | 13.33° C | 93% | 1017 hPa | 0 mm | - | 139 W/m² | - |
| 1777738961 | 13.33° C | 92% | 1017 hPa | 0 mm | - | 82 W/m² | - |
| 1777738657 | 13.33° C | 92% | 1016.8 hPa | 0 mm | - | 101 W/m² | - |
| 1777738353 | 13.89° C | 91% | 1016.9 hPa | 0 mm | - | 109 W/m² | - |
| 1777738052 | 13.89° C | 90% | 1016.8 hPa | 0 mm | - | 124 W/m² | - |
| 1777737751 | 14.44° C | 90% | 1016.7 hPa | 0 mm | - | 146 W/m² | - |
| 1777737449 | 13.89° C | 90% | 1016.8 hPa | 0 mm | - | 183 W/m² | - |
| 1777737140 | 13.89° C | 91% | 1016.9 hPa | 0 mm | - | 225 W/m² | - |
* Rain latest hour (hover to see other rain measurements)
** Current wind speed in m/s (hover to see current wind gust speed)